| time (UTC) | temp F | wind direction | speed MPH | gust MPH | rain 1hr in | rain 24hr in | rain mn in | humidity % | barometer mb |
| 20260505010827 | 67 | 0.0 | 0.0 | 0.00 | 0.00 | 0.00 | 52 | 1009.8 | |
| 20260505010525 | 67 | 0.0 | 0.0 | 0.00 | 0.00 | 0.00 | 51 | 1010.2 | |
| 20260505010345 | 67 | 0.0 | 0.0 | 0.00 | 0.00 | 0.00 | 51 | 1009.7 | |
| 20260505005821 | 68 | 0.0 | 0.0 | 0.00 | 0.00 | 0.00 | 50 | 1009.7 | |
| 20260505005525 | 67 | 0.0 | 0.0 | 0.00 | 0.00 | 0.00 | 50 | 1010.2 | |
| 20260505005317 | 68 | 0.0 | 0.0 | 0.00 | 0.00 | 0.00 | 50 | 1009.8 | |
| 20260505005026 | 68 | 0.0 | 0.0 | 0.00 | 0.00 | 0.00 | 50 | 1010.2 | |
| 20260505004817 | 68 | 0.0 | 0.0 | 0.00 | 0.00 | 0.00 | 50 | 1009.7 | |
| 20260505004540 | 68 | 0.0 | 0.0 | 0.00 | 0.00 | 0.00 | 49 | 1010.1 | |
| 20260505004316 | 69 | 0.0 | 0.0 | 0.00 | 0.00 | 0.00 | 49 | 1009.7 | |
| 20260505004026 | 69 | 0.0 | 0.0 | 0.00 | 0.00 | 0.00 | 49 | 1010.1 | |
| 20260505003835 | 69 | 0.0 | 0.0 | 0.00 | 0.00 | 0.00 | 49 | 1009.6 | |
| 20260505003524 | 69 | 0.0 | 0.0 | 0.00 | 0.00 | 0.00 | 47 | 1010.1 | |
| 20260505003331 | 70 | 0.0 | 0.0 | 0.00 | 0.00 | 0.00 | 48 | 1009.6 | |
| 20260505003042 | 69 | 0.0 | 0.0 | 0.00 | 0.00 | 0.00 | 46 | 1010.1 | |
| 20260505002827 | 70 | 0.0 | 0.0 | 0.00 | 0.00 | 0.00 | 47 | 1009.6 | |
| 20260505002524 | 70 | 0.0 | 0.0 | 0.00 | 0.00 | 0.00 | 46 | 1010.0 | |
| 20260505002324 | 71 | 0.0 | 0.0 | 0.00 | 0.00 | 0.00 | 47 | 1009.6 | |
| 20260505002026 | 70 | 0.0 | 0.0 | 0.00 | 0.00 | 0.00 | 47 | 1010.1 | |
| 20260505001817 | 71 | 0.0 | 0.0 | 0.00 | 0.00 | 0.00 | 47 | 1009.6 | |
| 20260505001544 | 70 | 0.0 | 0.0 | 0.00 | 0.00 | 0.00 | 45 | 1010.0 | |
| 20260505001334 | 71 | 0.0 | 0.0 | 0.00 | 0.00 | 0.00 | 47 | 1009.5 | |
| 20260505001025 | 71 | 0.0 | 0.0 | 0.00 | 0.00 | 0.00 | 45 | 1009.9 | |
| 20260505000828 | 71 | 0.0 | 0.0 | 0.00 | 0.00 | 0.00 | 45 | 1009.6 | |
| 20260505000525 | 71 | 0.0 | 0.0 | 0.00 | 0.00 | 0.00 | 44 | 1010.0 | |
| 20260505000324 | 71 | 0.0 | 0.0 | 0.00 | 0.00 | 0.00 | 44 | 1009.6 | |
| 20260505000048 | 71 | 0.0 | 0.0 | 0.00 | 0.00 | 0.00 | 45 | 1010.0 | |
| 20260504235820 | 71 | 0.0 | 0.0 | 0.00 | 0.00 | 0.00 | 45 | 1009.5 | |
| 20260504235526 | 71 | 0.0 | 0.0 | 0.00 | 0.00 | 0.00 | 44 | 1009.9 | |
| 20260504235334 | 71 | 0.0 | 0.0 | 0.00 | 0.00 | 0.00 | 43 | 1009.6 | |
| 20260504235025 | 71 | 0.0 | 0.0 | 0.00 | 0.00 | 0.00 | 43 | 1009.9 | |
| 20260504234829 | 72 | 0.0 | 0.0 | 0.00 | 0.00 | 0.00 | 43 | 1009.5 | |
| 20260504234540 | 71 | 0.0 | 0.0 | 0.00 | 0.00 | 0.00 | 42 | 1010.0 | |
| 20260504234322 | 72 | 0.0 | 0.0 | 0.00 | 0.00 | 0.00 | 45 | 1009.5 | |
| 20260504234026 | 71 | 0.0 | 0.0 | 0.00 | 0.00 | 0.00 | 42 | 1009.9 | |
| 20260504233835 | 72 | 0.0 | 0.0 | 0.00 | 0.00 | 0.00 | 42 | 1009.5 | |
| 20260504233525 | 71 | 0.0 | 0.0 | 0.00 | 0.00 | 0.00 | 44 | 1009.8 | |
| 20260504233040 | 72 | 0.0 | 3.0 | 0.00 | 0.00 | 0.00 | 43 | 1009.7 | |
| 20260504232828 | 72 | 175 | 0.0 | 3.0 | 0.00 | 0.00 | 0.00 | 44 | 1009.4 |
| 20260504232525 | 72 | 0 | 0.0 | 3.0 | 0.00 | 0.00 | 0.00 | 43 | 1009.8 |
| 20260504232321 | 72 | 175 | 1.0 | 3.0 | 0.00 | 0.00 | 0.00 | 42 | 1009.4 |
| 20260504232025 | 72 | 0 | 0.0 | 5.0 | 0.00 | 0.00 | 0.00 | 42 | 1009.8 |
| 20260504231830 | 73 | 181 | 1.0 | 5.0 | 0.00 | 0.00 | 0.00 | 40 | 1009.4 |
| 20260504231544 | 72 | 0 | 0.0 | 10.0 | 0.00 | 0.00 | 0.00 | 40 | 1009.7 |
| 20260504231316 | 73 | 179 | 1.0 | 9.0 | 0.00 | 0.00 | 0.00 | 42 | 1009.4 |
| 20260504231025 | 72 | 0 | 0.0 | 10.0 | 0.00 | 0.00 | 0.00 | 40 | 1009.7 |
| 20260504230828 | 73 | 194 | 1.0 | 9.0 | 0.00 | 0.00 | 0.00 | 41 | 1009.4 |
| 20260504230526 | 72 | 0 | 1.0 | 10.0 | 0.00 | 0.00 | 0.00 | 40 | 1009.6 |
| 20260504230338 | 73 | 233 | 1.0 | 8.0 | 0.00 | 0.00 | 0.00 | 40 | 1009.2 |
| 20260504230047 | 73 | 0 | 1.0 | 9.0 | 0.00 | 0.00 | 0.00 | 41 | 1009.7 |
| 20260504225833 | 73 | 310 | 1.0 | 8.0 | 0.00 | 0.00 | 0.00 | 39 | 1009.4 |
| 20260504225525 | 73 | 248 | 0.0 | 5.0 | 0.00 | 0.00 | 0.00 | 40 | 1009.6 |
| 20260504225323 | 73 | 162 | 1.0 | 5.0 | 0.00 | 0.00 | 0.00 | 41 | 1009.2 |
| 20260504225025 | 73 | 209 | 0.0 | 5.0 | 0.00 | 0.00 | 0.00 | 39 | 1009.6 |
| 20260504224817 | 73 | 291 | 0.0 | 5.0 | 0.00 | 0.00 | 0.00 | 39 | 1009.3 |
| 20260504224543 | 73 | 0 | 0.0 | 7.0 | 0.00 | 0.00 | 0.00 | 39 | 1009.6 |
| 20260504224329 | 73 | 200 | 1.0 | 6.0 | 0.00 | 0.00 | 0.00 | 40 | 1009.4 |
| 20260504224025 | 73 | 0 | 0.0 | 8.0 | 0.00 | 0.00 | 0.00 | 39 | 1009.7 |
| 20260504223822 | 73 | 204 | 1.0 | 7.0 | 0.00 | 0.00 | 0.00 | 41 | 1009.3 |
| 20260504223525 | 73 | 0 | 0.0 | 8.0 | 0.00 | 0.00 | 0.00 | 38 | 1009.7 |
| 20260504223335 | 73 | 192 | 0.0 | 7.0 | 0.00 | 0.00 | 0.00 | 39 | 1009.4 |
| 20260504223045 | 73 | 0 | 0.0 | 12.0 | 0.00 | 0.00 | 0.00 | 39 | 1009.7 |
| 20260504222847 | 73 | 223 | 1.0 | 11.0 | 0.00 | 0.00 | 0.00 | 39 | 1009.4 |
| 20260504222524 | 73 | 0 | 0.0 | 12.0 | 0.00 | 0.00 | 0.00 | 39 | 1009.7 |
| 20260504222316 | 74 | 181 | 0.0 | 11.0 | 0.00 | 0.00 | 0.00 | 40 | 1009.3 |
| 20260504222025 | 73 | 203 | 2.0 | 13.0 | 0.00 | 0.00 | 0.00 | 39 | 1009.6 |
| 20260504221847 | 74 | 186 | 3.0 | 12.0 | 0.00 | 0.00 | 0.00 | 40 | 1009.1 |
| 20260504221554 | 73 | 152 | 1.0 | 13.0 | 0.00 | 0.00 | 0.00 | 39 | 1009.4 |
| 20260504221319 | 74 | 141 | 2.0 | 12.0 | 0.00 | 0.00 | 0.00 | 39 | 1009.0 |
| 20260504221025 | 74 | 0 | 1.0 | 11.0 | 0.00 | 0.00 | 0.00 | 38 | 1009.5 |
| 20260504220831 | 74 | 163 | 2.0 | 10.0 | 0.00 | 0.00 | 0.00 | 38 | 1009.2 |
| 20260504220528 | 74 | 0 | 2.0 | 13.0 | 0.00 | 0.00 | 0.00 | 39 | 1009.6 |
| 20260504220322 | 74 | 202 | 3.0 | 12.0 | 0.00 | 0.00 | 0.00 | 39 | 1009.2 |
| 20260504220044 | 74 | 203 | 2.0 | 13.0 | 0.00 | 0.00 | 0.00 | 37 | 1009.5 |
| 20260504215838 | 75 | 181 | 4.0 | 12.0 | 0.00 | 0.00 | 0.00 | 38 | 1009.1 |
| 20260504215526 | 74 | 193 | 2.0 | 13.0 | 0.00 | 0.00 | 0.00 | 37 | 1009.6 |
| 20260504215351 | 75 | 188 | 1.0 | 12.0 | 0.00 | 0.00 | 0.00 | 37 | 1009.1 |
| 20260504215025 | 74 | 197 | 1.0 | 13.0 | 0.00 | 0.00 | 0.00 | 37 | 1009.5 |
| 20260504214822 | 75 | 188 | 1.0 | 12.0 | 0.00 | 0.00 | 0.00 | 37 | 1009.1 |
| 20260504214537 | 74 | 0 | 2.0 | 13.0 | 0.00 | 0.00 | 0.00 | 36 | 1009.5 |
| 20260504214335 | 75 | 179 | 2.0 | 12.0 | 0.00 | 0.00 | 0.00 | 37 | 1009.1 |
| 20260504214022 | 75 | 201 | 1.0 | 7.0 | 0.00 | 0.00 | 0.00 | 36 | 1009.4 |
| 20260504213827 | 75 | 274 | 2.0 | 6.0 | 0.00 | 0.00 | 0.00 | 36 | 1009.1 |
| 20260504213525 | 74 | 214 | 0.0 | 8.0 | 0.00 | 0.00 | 0.00 | 36 | 1009.5 |
| 20260504213318 | 75 | 217 | 0.0 | 7.0 | 0.00 | 0.00 | 0.00 | 37 | 1009.1 |
| 20260504213052 | 74 | 0 | 1.0 | 9.0 | 0.00 | 0.00 | 0.00 | 38 | 1009.5 |
| 20260504212830 | 75 | 223 | 1.0 | 7.0 | 0.00 | 0.00 | 0.00 | 39 | 1009.2 |
| 20260504212525 | 74 | 0 | 1.0 | 9.0 | 0.00 | 0.00 | 0.00 | 37 | 1009.5 |
| 20260504212321 | 75 | 165 | 1.0 | 9.0 | 0.00 | 0.00 | 0.00 | 39 | 1009.0 |
| 20260504212025 | 74 | 0 | 0.0 | 9.0 | 0.00 | 0.00 | 0.00 | 37 | 1009.5 |
| 20260504211816 | 75 | 317 | 1.0 | 8.0 | 0.00 | 0.00 | 0.00 | 39 | 1009.0 |
| 20260504211544 | 74 | 0 | 1.0 | 9.0 | 0.00 | 0.00 | 0.00 | 37 | 1009.5 |
| 20260504211327 | 75 | 232 | 1.0 | 8.0 | 0.00 | 0.00 | 0.00 | 38 | 1009.1 |
| 20260504211022 | 74 | 0 | 0.0 | 3.0 | 0.00 | 0.00 | 0.00 | 38 | 1009.7 |
| 20260504210816 | 75 | 157 | 0.0 | 3.0 | 0.00 | 0.00 | 0.00 | 39 | 1009.2 |
| 20260504210525 | 74 | 0 | 0.0 | 13.0 | 0.00 | 0.00 | 0.00 | 37 | 1009.5 |
| 20260504210328 | 75 | 352 | 0.0 | 11.0 | 0.00 | 0.00 | 0.00 | 36 | 1009.2 |
| 20260504210038 | 74 | 0 | 0.0 | 13.0 | 0.00 | 0.00 | 0.00 | 36 | 1009.7 |
| 20260504205820 | 75 | 202 | 1.0 | 12.0 | 0.00 | 0.00 | 0.00 | 37 | 1009.1 |
| 20260504205523 | 75 | 276 | 2.0 | 13.0 | 0.00 | 0.00 | 0.00 | 37 | 1009.7 |
| 20260504205335 | 75 | 165 | 0.0 | 8.0 | 0.00 | 0.00 | 0.00 | 40 | 1009.2 |
| 20260504205025 | 75 | 0 | 1.0 | 9.0 | 0.00 | 0.00 | 0.00 | 37 | 1009.5 |
| 20260504204848 | 75 | 160 | 0.0 | 8.0 | 0.00 | 0.00 | 0.00 | 37 | 1009.1 |
| 20260504204537 | 74 | 238 | 2.0 | 9.0 | 0.00 | 0.00 | 0.00 | 38 | 1009.6 |
| 20260504204317 | 75 | 206 | 2.0 | 7.0 | 0.00 | 0.00 | 0.00 | 37 | 1009.2 |
| 20260504204023 | 74 | 209 | 0.0 | 4.0 | 0.00 | 0.00 | 0.00 | 37 | 1009.6 |
| 20260504203830 | 75 | 160 | 1.0 | 7.0 | 0.00 | 0.00 | 0.00 | 42 | 1009.2 |
| 20260504203524 | 74 | 0 | 0.0 | 9.0 | 0.00 | 0.00 | 0.00 | 38 | 1009.7 |
| 20260504203346 | 75 | 212 | 0.0 | 8.0 | 0.00 | 0.00 | 0.00 | 37 | 1009.2 |
| 20260504203049 | 74 | 0 | 1.0 | 9.0 | 0.00 | 0.00 | 0.00 | 35 | 1009.7 |
| 20260504202816 | 75 | 235 | 1.0 | 9.0 | 0.00 | 0.00 | 0.00 | 39 | 1009.4 |
| 20260504202523 | 74 | 240 | 0.0 | 11.0 | 0.00 | 0.00 | 0.00 | 38 | 1009.8 |
| 20260504202331 | 75 | 223 | 1.0 | 10.0 | 0.00 | 0.00 | 0.00 | 36 | 1009.4 |
| 20260504202022 | 74 | 230 | 1.0 | 11.0 | 0.00 | 0.00 | 0.00 | 36 | 1009.9 |
| 20260504201821 | 75 | 150 | 2.0 | 10.0 | 0.00 | 0.00 | 0.00 | 37 | 1009.5 |
| 20260504201540 | 74 | 0 | 1.0 | 8.0 | 0.00 | 0.00 | 0.00 | 37 | 1009.9 |
| 20260504201333 | 75 | 155 | 2.0 | 6.0 | 0.00 | 0.00 | 0.00 | 38 | 1009.6 |
| 20260504201023 | 75 | 0 | 0.0 | 8.0 | 0.00 | 0.00 | 0.00 | 36 | 1010.2 |
| 20260504200818 | 75 | 177 | 0.0 | 7.0 | 0.00 | 0.00 | 0.00 | 37 | 1009.8 |
| 20260504200526 | 74 | 0 | 0.0 | 8.0 | 0.00 | 0.00 | 0.00 | 37 | 1010.2 |
| 20260504200327 | 75 | 235 | 0.0 | 4.0 | 0.00 | 0.00 | 0.00 | 38 | 1009.8 |
| 20260504200038 | 74 | 259 | 0.0 | 6.0 | 0.00 | 0.00 | 0.00 | 36 | 1010.2 |
| 20260504195815 | 74 | 173 | 1.0 | 5.0 | 0.00 | 0.00 | 0.00 | 37 | 1009.7 |
| 20260504195522 | 74 | 0 | 0.0 | 8.0 | 0.00 | 0.00 | 0.00 | 36 | 1010.2 |
| 20260504195332 | 74 | 182 | 0.0 | 6.0 | 0.00 | 0.00 | 0.00 | 38 | 1009.8 |
| 20260504195022 | 74 | 0 | 1.0 | 8.0 | 0.00 | 0.00 | 0.00 | 36 | 1010.2 |
| 20260504194826 | 74 | 177 | 1.0 | 7.0 | 0.00 | 0.00 | 0.00 | 40 | 1009.9 |
| 20260504194543 | 73 | 190 | 1.0 | 8.0 | 0.00 | 0.00 | 0.00 | 37 | 1010.3 |
| 20260504194319 | 74 | 265 | 0.0 | 4.0 | 0.00 | 0.00 | 0.00 | 38 | 1009.9 |
| 20260504194026 | 73 | 286 | 0.0 | 7.0 | 0.00 | 0.00 | 0.00 | 36 | 1010.4 |
| 20260504193832 | 74 | 173 | 1.0 | 6.0 | 0.00 | 0.00 | 0.00 | 36 | 1010.0 |
| 20260504193527 | 73 | 213 | 0.0 | 7.0 | 0.00 | 0.00 | 0.00 | 37 | 1010.5 |
| 20260504193346 | 74 | 173 | 2.0 | 6.0 | 0.00 | 0.00 | 0.00 | 38 | 1010.1 |
| 20260504193037 | 73 | 220 | 0.0 | 10.0 | 0.00 | 0.00 | 0.00 | 36 | 1010.6 |
| 20260504192821 | 73 | 197 | 1.0 | 9.0 | 0.00 | 0.00 | 0.00 | 36 | 1010.2 |
| 20260504192525 | 73 | 0 | 0.0 | 12.0 | 0.00 | 0.00 | 0.00 | 36 | 1010.7 |
| 20260504192315 | 73 | 192 | 1.0 | 11.0 | 0.00 | 0.00 | 0.00 | 36 | 1010.3 |
| 20260504192028 | 73 | 0 | 0.0 | 12.0 | 0.00 | 0.00 | 0.00 | 36 | 1010.8 |
| 20260504191849 | 74 | 173 | 0.0 | 11.0 | 0.00 | 0.00 | 0.00 | 37 | 1010.4 |
| 20260504191543 | 73 | 162 | 2.0 | 7.0 | 0.00 | 0.00 | 0.00 | 39 | 1011.1 |
| 20260504191320 | 73 | 183 | 0.0 | 6.0 | 0.00 | 0.00 | 0.00 | 38 | 1010.6 |
| 20260504191025 | 73 | 0 | 0.0 | 6.0 | 0.00 | 0.00 | 0.00 | 36 | 1011.0 |
| 20260504190834 | 73 | 21 | 1.0 | 6.0 | 0.00 | 0.00 | 0.00 | 37 | 1010.6 |
| 20260504190525 | 73 | 234 | 0.0 | 8.0 | 0.00 | 0.00 | 0.00 | 37 | 1011.1 |
| 20260504190327 | 73 | 140 | 1.0 | 8.0 | 0.00 | 0.00 | 0.00 | 37 | 1010.7 |
| 20260504190038 | 73 | 45 | 1.0 | 12.0 | 0.00 | 0.00 | 0.00 | 37 | 1011.3 |
| 20260504185840 | 73 | 198 | 3.0 | 12.0 | 0.00 | 0.00 | 0.00 | 37 | 1010.8 |
| 20260504185522 | 73 | 252 | 1.0 | 12.0 | 0.00 | 0.00 | 0.00 | 36 | 1011.4 |
| 20260504185316 | 73 | 240 | 3.0 | 12.0 | 0.00 | 0.00 | 0.00 | 38 | 1010.9 |
| 20260504185025 | 73 | 0 | 0.0 | 7.0 | 0.00 | 0.00 | 0.00 | 39 | 1011.4 |
| 20260504184815 | 73 | 173 | 1.0 | 6.0 | 0.00 | 0.00 | 0.00 | 39 | 1011.0 |
| 20260504184537 | 72 | 0 | 0.0 | 12.0 | 0.00 | 0.00 | 0.00 | 38 | 1011.5 |
| 20260504184331 | 73 | 175 | 1.0 | 7.0 | 0.00 | 0.00 | 0.00 | 39 | 1011.1 |
| 20260504184030 | 72 | 0 | 0.0 | 12.0 | 0.00 | 0.00 | 0.00 | 41 | 1011.5 |
| 20260504183824 | 73 | 190 | 1.0 | 11.0 | 0.00 | 0.00 | 0.00 | 39 | 1011.2 |
| 20260504183526 | 72 | 0 | 2.0 | 12.0 | 0.00 | 0.00 | 0.00 | 41 | 1011.6 |
| 20260504183337 | 73 | 208 | 1.0 | 8.0 | 0.00 | 0.00 | 0.00 | 39 | 1011.2 |
| 20260504183036 | 72 | 211 | 0.0 | 9.0 | 0.00 | 0.00 | 0.00 | 38 | 1011.6 |
| 20260504182828 | 72 | 15 | 1.0 | 8.0 | 0.00 | 0.00 | 0.00 | 41 | 1011.3 |
| 20260504182526 | 72 | 0 | 0.0 | 9.0 | 0.00 | 0.00 | 0.00 | 38 | 1011.7 |
| 20260504182322 | 72 | 212 | 1.0 | 8.0 | 0.00 | 0.00 | 0.00 | 38 | 1011.4 |
| 20260504182025 | 72 | 291 | 1.0 | 8.0 | 0.00 | 0.00 | 0.00 | 40 | 1011.9 |
| 20260504181814 | 72 | 165 | 1.0 | 7.0 | 0.00 | 0.00 | 0.00 | 42 | 1011.6 |
| 20260504181538 | 72 | 0 | 1.0 | 8.0 | 0.00 | 0.00 | 0.00 | 37 | 1011.8 |
| 20260504181330 | 72 | 320 | 1.0 | 6.0 | 0.00 | 0.00 | 0.00 | 38 | 1011.6 |
| 20260504181027 | 72 | 0 | 0.0 | 9.0 | 0.00 | 0.00 | 0.00 | 37 | 1012.0 |
| 20260504180843 | 72 | 196 | 1.0 | 8.0 | 0.00 | 0.00 | 0.00 | 38 | 1011.7 |
| 20260504180526 | 72 | 0 | 0.0 | 9.0 | 0.00 | 0.00 | 0.00 | 39 | 1012.0 |
| 20260504180316 | 72 | 192 | 1.0 | 8.0 | 0.00 | 0.00 | 0.00 | 39 | 1011.8 |
| 20260504180048 | 72 | 164 | 0.0 | 9.0 | 0.00 | 0.00 | 0.00 | 41 | 1012.1 |
| 20260504175850 | 72 | 165 | 1.0 | 7.0 | 0.00 | 0.00 | 0.00 | 40 | 1011.8 |
| 20260504175528 | 71 | 208 | 1.0 | 9.0 | 0.00 | 0.00 | 0.00 | 46 | 1012.1 |
| 20260504175323 | 72 | 256 | 0.0 | 9.0 | 0.00 | 0.00 | 0.00 | 38 | 1011.9 |
| 20260504175025 | 71 | 0 | 3.0 | 9.0 | 0.00 | 0.00 | 0.00 | 39 | 1012.2 |
| 20260504174835 | 72 | 177 | 5.0 | 9.0 | 0.00 | 0.00 | 0.00 | 41 | 1011.9 |
| 20260504174543 | 71 | 220 | 1.0 | 9.0 | 0.00 | 0.00 | 0.00 | 38 | 1012.2 |
| 20260504174330 | 72 | 171 | 2.0 | 7.0 | 0.00 | 0.00 | 0.00 | 39 | 1012.0 |
| 20260504174025 | 71 | 0 | 1.0 | 8.0 | 0.00 | 0.00 | 0.00 | 38 | 1012.2 |
| 20260504173846 | 71 | 196 | 2.0 | 7.0 | 0.00 | 0.00 | 0.00 | 45 | 1012.1 |
| 20260504173525 | 71 | 199 | 1.0 | 11.0 | 0.00 | 0.00 | 0.00 | 40 | 1012.3 |
| 20260504173317 | 71 | 25 | 1.0 | 11.0 | 0.00 | 0.00 | 0.00 | 40 | 1012.1 |
| 20260504173037 | 71 | 256 | 1.0 | 12.0 | 0.00 | 0.00 | 0.00 | 39 | 1012.4 |
| 20260504172829 | 72 | 148 | 3.0 | 11.0 | 0.00 | 0.00 | 0.00 | 41 | 1012.2 |
| 20260504172524 | 71 | 181 | 1.0 | 12.0 | 0.00 | 0.00 | 0.00 | 42 | 1012.4 |
| 20260504172322 | 71 | 163 | 0.0 | 5.0 | 0.00 | 0.00 | 0.00 | 40 | 1012.2 |
| 20260504172025 | 71 | 0 | 0.0 | 9.0 | 0.00 | 0.00 | 0.00 | 37 | 1012.4 |
| 20260504171813 | 72 | 296 | 0.0 | 8.0 | 0.00 | 0.00 | 0.00 | 37 | 1012.2 |
| 20260504171539 | 71 | 0 | 1.0 | 9.0 | 0.00 | 0.00 | 0.00 | 37 | 1012.5 |
| 20260504171329 | 72 | 187 | 2.0 | 8.0 | 0.00 | 0.00 | 0.00 | 41 | 1012.3 |
| 20260504171026 | 72 | 304 | 1.0 | 9.0 | 0.00 | 0.00 | 0.00 | 37 | 1012.7 |
| 20260504170821 | 72 | 207 | 1.0 | 5.0 | 0.00 | 0.00 | 0.00 | 39 | 1012.4 |
| 20260504170525 | 71 | 242 | 0.0 | 10.0 | 0.00 | 0.00 | 0.00 | 37 | 1012.8 |
| 20260504170335 | 72 | 100 | 1.0 | 9.0 | 0.00 | 0.00 | 0.00 | 38 | 1012.6 |
| 20260504160323 | 70 | 171 | 1.0 | 6.0 | 0.00 | 0.00 | 0.00 | 36 | 1013.2 |
| 20260504151025 | 67 | 0 | 0.0 | 7.0 | 0.00 | 0.00 | 0.00 | 40 | 1014.2 |
| 20260504150824 | 67 | 192 | 0.0 | 6.0 | 0.00 | 0.00 | 0.00 | 38 | 1013.9 |
| 20260504150525 | 66 | 0 | 1.0 | 7.0 | 0.00 | 0.00 | 0.00 | 40 | 1014.2 |
| 20260504150317 | 67 | 349 | 1.0 | 3.0 | 0.00 | 0.00 | 0.00 | 42 | 1013.8 |
| 20260504141028 | 61 | 0 | 0.0 | 5.0 | 0.00 | 0.00 | 0.00 | 46 | 1014.4 |
| 20260504140817 | 61 | 216 | 0.0 | 5.0 | 0.00 | 0.00 | 0.00 | 48 | 1014.0 |
| 20260504140525 | 61 | 197 | 0.0 | 5.0 | 0.00 | 0.00 | 0.00 | 50 | 1014.3 |
| 20260504140313 | 61 | 165 | 0.0 | 5.0 | 0.00 | 0.00 | 0.00 | 49 | 1014.0 |
| 20260504130525 | 55 | 0 | 0.0 | 3.0 | 0.00 | 0.00 | 0.00 | 59 | 1014.8 |
| 20260504130340 | 55 | 169 | 0.0 | 4.0 | 0.00 | 0.00 | 0.00 | 62 | 1014.6 |
| 20260504120317 | 50 | 177 | 0.0 | 0.0 | 0.00 | 0.00 | 0.00 | 69 | 1014.8 |
| 20260504110525 | 44 | 0 | 0.0 | 0.0 | 0.00 | 0.00 | 0.00 | 82 | 1015.2 |
| 20260504110332 | 45 | 0.0 | 0.0 | 0.00 | 0.00 | 0.00 | 83 | 1015.0 | |
| 20260504100522 | 45 | 0.0 | 0.0 | 0.00 | 0.00 | 0.00 | 80 | 1015.2 | |
| 20260504100318 | 46 | 0.0 | 0.0 | 0.00 | 0.00 | 0.00 | 81 | 1014.9 | |
| 20260504081829 | 44 | 0.0 | 0.0 | 0.00 | 0.00 | 0.00 | 86 | 1015.2 | |
| 20260504081545 | 43 | 0.0 | 0.0 | 0.00 | 0.00 | 0.00 | 86 | 1015.7 | |
| 20260504081346 | 44 | 0.0 | 0.0 | 0.00 | 0.00 | 0.00 | 86 | 1015.2 | |
| 20260504081029 | 43 | 0.0 | 0.0 | 0.00 | 0.00 | 0.00 | 86 | 1015.6 | |
| 20260504080820 | 44 | 0.0 | 0.0 | 0.00 | 0.00 | 0.00 | 86 | 1015.1 | |
| 20260504080525 | 43 | 0.0 | 0.0 | 0.00 | 0.00 | 0.00 | 86 | 1015.5 | |
| 20260504080317 | 43 | 0.0 | 0.0 | 0.00 | 0.00 | 0.00 | 86 | 1015.0 | |
| 20260504080104 | 43 | 0.0 | 0.0 | 0.00 | 0.00 | 0.00 | 86 | 1015.5 | |
| 20260504070315 | 42 | 0.0 | 0.0 | 0.00 | 0.00 | 0.00 | 88 | 1015.3 | |
| 20260504050526 | 40 | 0.0 | 0.0 | 0.00 | 0.00 | 0.00 | 87 | 1016.1 | |
| 20260504050328 | 40 | 0.0 | 0.0 | 0.00 | 0.00 | 0.00 | 87 | 1015.7 | |
| 20260504045825 | 40 | 0.0 | 0.0 | 0.00 | 0.00 | 0.00 | 86 | 1015.8 | |
| 20260504045525 | 40 | 0.0 | 0.0 | 0.00 | 0.00 | 0.00 | 86 | 1016.1 | |
| 20260504045321 | 40 | 0.0 | 0.0 | 0.00 | 0.00 | 0.00 | 86 | 1015.7 | |
| 20260504045025 | 40 | 0.0 | 0.0 | 0.00 | 0.00 | 0.00 | 86 | 1016.2 | |
| 20260504044817 | 40 | 0.0 | 0.0 | 0.00 | 0.00 | 0.00 | 86 | 1015.7 | |
| 20260504044539 | 40 | 0.0 | 0.0 | 0.00 | 0.00 | 0.00 | 85 | 1016.1 | |
| 20260504044334 | 40 | 0.0 | 0.0 | 0.00 | 0.00 | 0.00 | 86 | 1015.7 | |
| 20260504044025 | 40 | 0.0 | 0.0 | 0.00 | 0.00 | 0.00 | 85 | 1016.1 | |
| 20260504043829 | 40 | 0.0 | 0.0 | 0.00 | 0.00 | 0.00 | 86 | 1015.7 | |
| 20260504043525 | 40 | 0.0 | 0.0 | 0.00 | 0.00 | 0.00 | 85 | 1016.1 | |
| 20260504043325 | 40 | 0.0 | 0.0 | 0.00 | 0.00 | 0.00 | 86 | 1015.6 | |
| 20260504043037 | 40 | 0.0 | 0.0 | 0.00 | 0.00 | 0.00 | 85 | 1015.9 | |
| 20260504042822 | 41 | 0.0 | 0.0 | 0.00 | 0.00 | 0.00 | 85 | 1015.6 | |
| 20260504042526 | 40 | 0.0 | 0.0 | 0.00 | 0.00 | 0.00 | 84 | 1016.0 | |
| 20260504042317 | 41 | 0.0 | 0.0 | 0.00 | 0.00 | 0.00 | 85 | 1015.6 | |
| 20260504042025 | 40 | 0.0 | 0.0 | 0.00 | 0.00 | 0.00 | 84 | 1016.0 | |
| 20260504041818 | 41 | 0.0 | 0.0 | 0.00 | 0.00 | 0.00 | 85 | 1015.6 | |
| 20260504041540 | 40 | 0.0 | 0.0 | 0.00 | 0.00 | 0.00 | 84 | 1016.0 | |
| 20260504041335 | 41 | 0.0 | 0.0 | 0.00 | 0.00 | 0.00 | 85 | 1015.6 | |
| 20260504041022 | 40 | 0.0 | 0.0 | 0.00 | 0.00 | 0.00 | 84 | 1015.9 | |
| 20260504040849 | 41 | 0.0 | 0.0 | 0.00 | 0.00 | 0.00 | 84 | 1015.5 | |
| 20260504040522 | 41 | 0.0 | 0.0 | 0.00 | 0.00 | 0.00 | 84 | 1016.0 | |
| 20260504040321 | 41 | 0.0 | 0.0 | 0.00 | 0.00 | 0.00 | 84 | 1015.6 | |
| 20260504040100 | 41 | 0.0 | 0.0 | 0.00 | 0.00 | 0.00 | 83 | 1016.0 | |
| 20260504035835 | 41 | 0.0 | 0.0 | 0.00 | 0.00 | 0.00 | 84 | 1015.6 | |
| 20260504035525 | 41 | 0.0 | 0.0 | 0.00 | 0.00 | 0.00 | 83 | 1016.0 | |
| 20260504035330 | 41 | 0.0 | 0.0 | 0.00 | 0.00 | 0.00 | 83 | 1015.7 | |
| 20260504035023 | 41 | 0.0 | 0.0 | 0.00 | 0.00 | 0.00 | 82 | 1016.1 | |
| 20260504034824 | 42 | 0.0 | 0.0 | 0.00 | 0.00 | 0.00 | 83 | 1015.8 | |
| 20260504034538 | 41 | 0.0 | 0.0 | 0.00 | 0.00 | 0.00 | 82 | 1016.1 | |
| 20260504034022 | 41 | 0.0 | 0.0 | 0.00 | 0.00 | 0.00 | 82 | 1016.0 | |
| 20260504033844 | 42 | 0.0 | 0.0 | 0.00 | 0.00 | 0.00 | 82 | 1015.6 | |
| 20260504033526 | 41 | 0.0 | 0.0 | 0.00 | 0.00 | 0.00 | 81 | 1015.9 | |
| 20260504033319 | 42 | 0.0 | 0.0 | 0.00 | 0.00 | 0.00 | 81 | 1015.5 | |
| 20260504033038 | 42 | 0.0 | 0.0 | 0.00 | 0.00 | 0.00 | 81 | 1015.9 | |
| 20260504032816 | 42 | 0.0 | 0.0 | 0.00 | 0.00 | 0.00 | 81 | 1015.4 | |
| 20260504032524 | 42 | 0.0 | 0.0 | 0.00 | 0.00 | 0.00 | 80 | 1015.8 | |
| 20260504032334 | 42 | 0.0 | 0.0 | 0.00 | 0.00 | 0.00 | 80 | 1015.4 | |
| 20260504032029 | 42 | 0.0 | 0.0 | 0.00 | 0.00 | 0.00 | 80 | 1015.7 | |
| 20260504031830 | 42 | 0.0 | 0.0 | 0.00 | 0.00 | 0.00 | 80 | 1015.4 | |
| 20260504031537 | 42 | 0.0 | 0.0 | 0.00 | 0.00 | 0.00 | 80 | 1015.8 | |
| 20260504031346 | 43 | 0.0 | 0.0 | 0.00 | 0.00 | 0.00 | 80 | 1015.4 | |
| 20260504031022 | 42 | 0.0 | 0.0 | 0.00 | 0.00 | 0.00 | 79 | 1015.7 | |
| 20260504030841 | 43 | 0.0 | 0.0 | 0.00 | 0.00 | 0.00 | 79 | 1015.3 | |
| 20260504030525 | 42 | 0.0 | 0.0 | 0.00 | 0.00 | 0.00 | 78 | 1015.7 | |
| 20260504030318 | 43 | 0.0 | 0.0 | 0.00 | 0.00 | 0.00 | 78 | 1015.3 | |
| 20260504030044 | 43 | 0.0 | 0.0 | 0.00 | 0.00 | 0.00 | 78 | 1015.6 | |
| 20260504025850 | 43 | 0.0 | 0.0 | 0.00 | 0.00 | 0.00 | 78 | 1015.3 | |
| 20260504025526 | 43 | 0.0 | 0.0 | 0.00 | 0.00 | 0.00 | 78 | 1015.6 | |
| 20260504025323 | 43 | 0.0 | 0.0 | 0.00 | 0.00 | 0.00 | 77 | 1015.3 | |
| 20260504025025 | 43 | 0.0 | 0.0 | 0.00 | 0.00 | 0.00 | 76 | 1015.6 | |
| 20260504024820 | 44 | 0.0 | 0.0 | 0.00 | 0.00 | 0.00 | 77 | 1015.1 | |
| 20260504024539 | 43 | 0.0 | 0.0 | 0.00 | 0.00 | 0.00 | 76 | 1015.5 | |
| 20260504024338 | 44 | 0.0 | 0.0 | 0.00 | 0.00 | 0.00 | 76 | 1015.1 | |
| 20260504024030 | 43 | 0.0 | 0.0 | 0.00 | 0.00 | 0.00 | 75 | 1015.5 | |
| 20260504023813 | 44 | 0.0 | 0.0 | 0.00 | 0.00 | 0.00 | 75 | 1015.1 | |
| 20260504023526 | 44 | 0.0 | 0.0 | 0.00 | 0.00 | 0.00 | 75 | 1015.4 | |
| 20260504023331 | 44 | 0.0 | 0.0 | 0.00 | 0.00 | 0.00 | 75 | 1015.1 | |
| 20260504023037 | 44 | 0.0 | 0.0 | 0.00 | 0.00 | 0.00 | 74 | 1015.5 | |
| 20260504022824 | 44 | 0.0 | 0.0 | 0.00 | 0.00 | 0.00 | 75 | 1015.1 | |
| 20260504022525 | 44 | 0.0 | 0.0 | 0.00 | 0.00 | 0.00 | 74 | 1015.4 | |
| 20260504022318 | 45 | 0.0 | 0.0 | 0.00 | 0.00 | 0.00 | 74 | 1015.0 | |
| 20260504022025 | 44 | 0.0 | 0.0 | 0.00 | 0.00 | 0.00 | 73 | 1015.4 | |
| 20260504021830 | 45 | 0.0 | 0.0 | 0.00 | 0.00 | 0.00 | 73 | 1015.0 | |
| 20260504021537 | 45 | 0.0 | 0.0 | 0.00 | 0.00 | 0.00 | 72 | 1015.3 | |
| 20260504021326 | 45 | 0.0 | 0.0 | 0.00 | 0.00 | 0.00 | 72 | 1015.0 | |
| 20260504021025 | 45 | 0.0 | 0.0 | 0.00 | 0.00 | 0.00 | 72 | 1015.3 | |
| 20260504020822 | 45 | 0.0 | 0.0 | 0.00 | 0.00 | 0.00 | 72 | 1014.9 | |
| 20260504020525 | 45 | 0.0 | 0.0 | 0.00 | 0.00 | 0.00 | 72 | 1015.3 | |
| 20260504020319 | 46 | 0.0 | 0.0 | 0.00 | 0.00 | 0.00 | 72 | 1015.0 | |
| 20260504020037 | 45 | 0.0 | 0.0 | 0.00 | 0.00 | 0.00 | 70 | 1015.4 | |
| 20260504015835 | 46 | 0.0 | 0.0 | 0.00 | 0.00 | 0.00 | 70 | 1015.0 | |
| 20260504015525 | 46 | 0.0 | 0.0 | 0.00 | 0.00 | 0.00 | 69 | 1015.4 | |
| 20260504015348 | 46 | 0.0 | 0.0 | 0.00 | 0.00 | 0.00 | 69 | 1014.9 | |
| 20260504015026 | 46 | 0.0 | 0.0 | 0.00 | 0.00 | 0.00 | 69 | 1015.2 | |
| 20260504014822 | 46 | 0.0 | 0.0 | 0.00 | 0.00 | 0.00 | 69 | 1014.9 | |
| 20260504014542 | 46 | 0.0 | 0.0 | 0.00 | 0.00 | 0.00 | 67 | 1015.2 | |
| 20260504014333 | 47 | 0.0 | 0.0 | 0.00 | 0.00 | 0.00 | 68 | 1014.8 | |
| 20260504014025 | 46 | 0.0 | 0.0 | 0.00 | 0.00 | 0.00 | 67 | 1015.2 | |
| 20260504013825 | 47 | 0.0 | 0.0 | 0.00 | 0.00 | 0.00 | 67 | 1014.8 | |
| 20260504013525 | 47 | 0.0 | 0.0 | 0.00 | 0.00 | 0.00 | 66 | 1015.1 | |
| 20260504013322 | 47 | 0.0 | 0.0 | 0.00 | 0.00 | 0.00 | 66 | 1014.8 | |
| 20260504013042 | 47 | 0.0 | 0.0 | 0.00 | 0.00 | 0.00 | 65 | 1015.2 | |
| 20260504012816 | 48 | 0.0 | 0.0 | 0.00 | 0.00 | 0.00 | 66 | 1014.8 | |
| 20260504012527 | 47 | 0.0 | 0.0 | 0.00 | 0.00 | 0.00 | 65 | 1015.1 | |
| 20260504012312 | 48 | 0.0 | 0.0 | 0.00 | 0.00 | 0.00 | 65 | 1014.7 | |
| 20260504012025 | 48 | 0.0 | 0.0 | 0.00 | 0.00 | 0.00 | 64 | 1015.0 | |
| 20260504011829 | 49 | 0.0 | 0.0 | 0.00 | 0.00 | 0.00 | 64 | 1014.6 | |
| 20260504011540 | 48 | 0.0 | 0.0 | 0.00 | 0.00 | 0.00 | 63 | 1015.0 | |
| 20260504011325 | 49 | 0.0 | 0.0 | 0.00 | 0.00 | 0.00 | 63 | 1014.6 | |
| 20260504011024 | 49 | 0.0 | 0.0 | 0.00 | 0.00 | 0.00 | 63 | 1015.0 |